Location: Katowice
(50.2611°N, 19.0242°E)
Time: 16:48:58
(UTC+02:00)

Explorer 7 - Pass Details

Date: 26 August 2019
Orbit: 485 x 680 km, 50.3° (Epoch: 17 September)

Event Time Altitude Azimuth Distance (km) Brightness Sun altitude
Rises 15:09:39 0° 284° (WNW) 2,884 10.9 40.4°
Reaches altitude 10° 15:12:32 10° 267° (W) 1,935 10.4 40.0°
Maximum altitude 15:15:40 19° 222° (SW) 1,385 10.4 39.6°
Drops below altitude 10° 15:18:41 10° 175° (S) 1,837 10.0 39.2°
Sets 15:21:19 0° 158° (SSE) 2,687 10.5 38.9°
